Terminal Aerodrome Forecast
Issued by NWS San Angelo, TX

Home | Current Version | Previous Version | Text Only | Print | Product List | Glossary On
Versions: 1 2 3 4 5 6 7 8 9 10 11 12 13 14 15 16 17 18
000
FTUS44 KSJT 250900 AAA
TAFSJT
TAF AMD
KSJT 250922Z 2509/2606 29005KT P6SM SCT250
     FM251600 35007KT P6SM SCT250
     FM251800 36010G17KT P6SM SCT250
     FM260000 35005KT P6SM FEW250
     FM260100 35005KT P6SM FEW250
     FM260500 29003KT P6SM FEW250=

USA.gov is the U.S. government's official web portal to all federal, state and local government web resources and services.